"Pseudo-MPEC" for P11cjvu

Created 2021 Jan 20 15:07:28 UT using Find_Orb

Click here for an explanation of pseudo-MPECs

 
 Astrometry: 
     P11cjvu  C2021 01 17.Ta\r/gAstrometrye*6Ad_%\wwTh+@qq6l4#-Yeo3)VI?7AI'=3F51
     P11cjvu  C2021 01 17@BI=s#_$xVOhHdF/C1$1o[ZKql$R/ks+;j$rP(J,X9/v9?JwPsXeF51
     P11cjvu  C2021 01 17D267ji\,Q,0I\mNi%gR!Jt*G%$YjHl96I:redacted;reILdM.W!F51
     P11cjvu  C2021 01 17Q6B]7H.f,Uk05[3[;KetD*tGV_t?pup-=Tx?dqUj`j#u`^G%XE/-F51
     P11cjvu |C2021 01 18l@Fg_/I4=-Yf3+v$Ef[u?B+RAoclick_35+N!q7%+/'8hmLMC*Md807
     P11cjvu |C2021 01 18eHj_Dvkek*xZ5S.jJhereyoU.PGQxM$A1Q+wSv6wr'=1;wn_Dr^:807
     P11cjvu KC2021 01 18.24384 09 03 14.80 -14 15 25.8    ~1I87 21.3 RoNEOCP691
     P11cjvu KC2021 01 18.26195 09 03 16.79 -14 15 18.1    ~1I87 20.9 RoNEOCP691
     P11cjvu KC2021 01 18.28006 09 03 18.70 -14 15 10.1    ~1I87 21.6 RoNEOCP691
     P11cjvu KC2021 01 18.29422709 03 20.24 -14 15 03.8    ~1I7b 20.97GVNEOCPI52
     P11cjvu KC2021 01 18.29758009 03 20.55 -14 15 02.2    ~1I7b 21.07GVNEOCPI52
     P11cjvu KC2021 01 18.30093309 03 20.92 -14 15 00.6    ~1I7b 21.30GVNEOCPI52
     P11cjvu KC2021 01 18.30428409 03 21.27 -14 14 59.2    ~1I7b 21.17GVNEOCPI52
     P11cjvu ^C2021 01 18.36773509 03 29.365-14 14 23.63   ~1IF7 21.01GVNEOCP568
     P11cjvu ^C2021 01 18.36871409 03 29.469-14 14 23.23   ~1IF7 21.08GVNEOCP568
     P11cjvu ^C2021 01 18.36969609 03 29.577-14 14 22.76   ~1IF7 21.06GVNEOCP568
     P11cjvu KC2021 01 18'mjNDhVdg.oakT9=5U4J1rJEjc9q0]TV0jwr_Z+JM:\7:-o%MnpjL01
     P11cjvu KC2021 01 18aADuT$+n)7.yforK9#Ro=4,XexplanationA/'!6uK\lZh4_s,SVL01
     P11cjvu KC2021 01 18C;UH.Y$P5db0Miecd6C]#[%ktRR'/OCxQQx/(gtjRG4=exTbS7@hL01
     P11cjvu KC2021 01 18p1bHci1m2Pk[CMce!.=IBZhthPMYpoO\Wxy!cl397+u[38F4c7BwL01

Station data:
(568) Mauna Kea  (N19.826116 W155.472200)  US/Hawaii.
(691) Steward Observatory, Kitt Peak - Spacewatch  (N31.962174 W111.600327)
   US/Arizona.  Observer J. V. Scotti. 0.9-m f/3 reflector + CCD.
(807) Cerro Tololo Observatory, La Serena  (S30.169136 W70.805900)  Chile.
(F51) Pan-STARRS 1, Haleakala  (N20.707235 W156.255910)  US/Hawaii.
   Observers N. Primak, A. Schultz, S. Watters, J. Thiel, T. Goggia. Measurer
   PS1 Science Consortium. 1.8-m Ritchey-Chrétien + CCD.
(I52) Steward Observatory, Mt. Lemmon Station  (N32.442547 W110.788920)
   US/Arizona.  Observers T. A. Pruyne, B. M. Africano, E. J. Christensen, G.
   A. Farneth, D. C. Fuls, A. R. Gibbs, A. D. Grauer, H. Gröller, J. A.
   Johnson, R. A. Kowalski, S. M. Larson, G. J. Leonard, D. Rankin, R. L.
   Seaman, F. C. Shelly. 1.0-m reflector + CCD.
(L01) Višnjan Observatory, Tičan  (N45.290900 E13.749300)  Croatia.
   Observers K. Korlević, E. Pettarin. Measurer E. Pettarin. 1.0-m f/2.9
   reflector + CCD.

Orbital elements:  P11cjvu
   Perihelion 2021 Jan 25.026759 +/- 0.575483 TT =  0:38:32 (JD 2459239.526759)
Epoch 2021 Jan 18.0 TT = JDT 2459232.5   Earth MOID: 0.2775   AutoNEOCP
M 358.45319421 +/- 0.1592941        (J2000 ecliptic)
n   0.22013074 +/- 0.00681655       Peri.  321.91029 +/- 0.8361159
a   2.71653668 +/- 0.0560665        Node   167.01323 +/- 0.3517926
e   0.5430678 +/- 0.00832593        Incl.   10.24376 +/- 0.0796611
P   4.48                   H 22.2   G  0.15   U  9.4  
q 1.24127295 +/- 0.00308824    Q 4.19180041 +/- 0.111644
From 20 observations 2021 Jan. 17-18 (37.7 hr); mean residual 0".18
Residuals in arcseconds: 
210117 F51  .14-  .08+    210118 691  .36+  .23-    210118 568  .06+  .06+    
210117 F51  .02-  .01-    210118 691  .29-  .21-    210118 568  .09+  .09+    
210117 F51  .09+  .04+    210118 I52  .34+  .02-    210118 L01  .25+  .09-    
210117 F51  .01+  .07+    210118 I52  .37-  .08+    210118 L01  .28-  .24+    
210118 807  .24+  .12-    210118 I52  .21-  .18+    210118 L01  .14-  .18-    
210118 807  .04-  .11-    210118 I52  .34-  .07+    210118 L01  .15+  .13+    
210118 691  .02+  .03-    210118 568  .09+  .09+    

Ephemerides (geocentric):
Date (UTC) HH   RA              Dec         delta   r     elong  mag " sig PA
---- -- -- --  -------------   -----------  ------ ------ -----  --- ---- ---
2021 01 20 15  09 07 51.572   -13 53 37.49  .30537 1.2423 143.3 21.4 1.58  32
2021 01 20 16  09 07 56.433   -13 53 11.41  .30528 1.2423 143.3 21.4 1.63  32
2021 01 20 17  09 08 01.295   -13 52 45.22  .30519 1.2422 143.3 21.4 1.68  33
2021 01 20 18  09 08 06.156   -13 52 18.90  .30509 1.2422 143.3 21.4 1.74  33
2021 01 20 19  09 08 11.018   -13 51 52.46  .30500 1.2422 143.4 21.4 1.79  33
2021 01 20 20  09 08 15.879   -13 51 25.90  .30491 1.2422 143.4 21.4 1.85  33
2021 01 20 21  09 08 20.740   -13 50 59.21  .30481 1.2422 143.4 21.4 1.90  34
2021 01 20 22  09 08 25.601   -13 50 32.41  .30472 1.2422 143.4 21.4 1.96  34
2021 01 20 23  09 08 30.463   -13 50 05.48  .30463 1.2421 143.5 21.4 2.02  34
2021 01 21 00  09 08 35.324   -13 49 38.44  .30453 1.2421 143.5 21.4 2.08  34
2021 01 21 01  09 08 40.185   -13 49 11.27  .30444 1.2421 143.5 21.4 2.14  34
2021 01 21 02  09 08 45.046   -13 48 43.98  .30435 1.2421 143.5 21.4 2.20  34
2021 01 21 03  09 08 49.906   -13 48 16.56  .30426 1.2421 143.6 21.4 2.26  35
2021 01 21 04  09 08 54.767   -13 47 49.03  .30417 1.2420 143.6 21.4 2.33  35
2021 01 21 05  09 08 59.628   -13 47 21.38  .30407 1.2420 143.6 21.4 2.39  35
2021 01 21 06  09 09 04.488   -13 46 53.60  .30398 1.2420 143.6 21.4 2.46  35
2021 01 21 07  09 09 09.349   -13 46 25.70  .30389 1.2420 143.7 21.4 2.52  35
2021 01 21 08  09 09 14.209   -13 45 57.68  .30380 1.2420 143.7 21.4 2.59  35
2021 01 21 09  09 09 19.070   -13 45 29.54  .30371 1.2420 143.7 21.4 2.66  35
2021 01 21 10  09 09 23.930   -13 45 01.27  .30362 1.2420 143.7 21.3 2.72  36
2021 01 21 11  09 09 28.790   -13 44 32.89  .30353 1.2419 143.8 21.3 2.79  36
2021 01 21 12  09 09 33.650   -13 44 04.38  .30344 1.2419 143.8 21.3 2.86  36
2021 01 21 13  09 09 38.510   -13 43 35.75  .30335 1.2419 143.8 21.3 2.94  36
2021 01 21 14  09 09 43.370   -13 43 07.00  .30325 1.2419 143.8 21.3 3.01  36
2021 01 21 15  09 09 48.230   -13 42 38.13  .30316 1.2419 143.9 21.3 3.08  36
2021 01 21 16  09 09 53.089   -13 42 09.13  .30307 1.2419 143.9 21.3 3.16  36
2021 01 21 17  09 09 57.949   -13 41 40.02  .30299 1.2418 143.9 21.3 3.23  36
2021 01 21 18  09 10 02.808   -13 41 10.78  .30290 1.2418 143.9 21.3 3.31  36
2021 01 21 19  09 10 07.668   -13 40 41.42  .30281 1.2418 144.0 21.3 3.39  36
2021 01 21 20  09 10 12.527   -13 40 11.93  .30272 1.2418 144.0 21.3 3.46  37
2021 01 21 21  09 10 17.386   -13 39 42.33  .30263 1.2418 144.0 21.3 3.54  37
2021 01 21 22  09 10 22.245   -13 39 12.60  .30254 1.2418 144.0 21.3 3.62  37
2021 01 21 23  09 10 27.104   -13 38 42.76  .30245 1.2418 144.1 21.3 3.70  37
2021 01 22 00  09 10 31.962   -13 38 12.79  .30236 1.2418 144.1 21.3 3.79  37
2021 01 22 01  09 10 36.821   -13 37 42.69  .30227 1.2417 144.1 21.3 3.87  37
2021 01 22 02  09 10 41.680   -13 37 12.48  .30219 1.2417 144.1 21.3 3.95  37
2021 01 22 03  09 10 46.538   -13 36 42.15  .30210 1.2417 144.2 21.3 4.04  37
2021 01 22 04  09 10 51.396   -13 36 11.69  .30201 1.2417 144.2 21.3 4.12  37
2021 01 22 05  09 10 56.254   -13 35 41.11  .30192 1.2417 144.2 21.3 4.21  37
2021 01 22 06  09 11 01.112   -13 35 10.41  .30184 1.2417 144.2 21.3 4.30  37
2021 01 22 07  09 11 05.970   -13 34 39.58  .30175 1.2417 144.3 21.3 4.39  37
2021 01 22 08  09 11 10.828   -13 34 08.64  .30166 1.2417 144.3 21.3 4.48  37
2021 01 22 09  09 11 15.685   -13 33 37.57  .30157 1.2416 144.3 21.3 4.57  37
2021 01 22 10  09 11 20.543   -13 33 06.38  .30149 1.2416 144.3 21.3 4.66  37
2021 01 22 11  09 11 25.400   -13 32 35.07  .30140 1.2416 144.4 21.3 4.75  37
2021 01 22 12  09 11 30.257   -13 32 03.63  .30131 1.2416 144.4 21.3 4.85  37
2021 01 22 13  09 11 35.114   -13 31 32.08  .30123 1.2416 144.4 21.3 4.94  38
2021 01 22 14  09 11 39.971   -13 31 00.40  .30114 1.2416 144.4 21.3 5.04  38